Location: Karcze
(52.0945°N, 22.4786°E)
Time: 23:09:26
(UTC+00:00)

Transit 2A Rocket - Pass Details

Date: 05 August 2021
Orbit: 586 x 917 km, 66.7° (Epoch: 26 September)

Event Time Altitude Azimuth Distance (km) Brightness Sun altitude
Rises 12:43:53 0° 232° (SW) 2,891 8.7 46.7°
Reaches altitude 10° 12:46:06 10° 237° (WSW) 2,023 8.2 46.4°
Maximum altitude 12:50:36 56° 316° (NW) 810 5.8 45.9°
Drops below altitude 10° 12:55:33 10° 34° (NE) 2,226 7.1 45.3°
Sets 12:58:05 0° 39° (NE) 3,210 7.8 45.0°
